Tallevast, FL

9:15 PM EST on February 06, 2016 (GMT -0500)
Sarasota-bradenton

Weather History for KSRQ - January, 2011

Change the Weather History Date:

Saturday, January 29, 2011

  Actual Average Record
Temperature  
Mean Temperature 56 °F 62 °F  
Max Temperature 68 °F 72 °F 84 °F (1957)
Min Temperature 44 °F 52 °F 23 °F (1940)
Degree Days  
Heating Degree Days 9 5  
Month to date heating degree days 200 154  
Since 1 July heating degree days 596 309  
Cooling Degree Days 0 2  
Month to date cooling degree days 8 58  
Year to date cooling degree days 8 58  
Growing Degree Days 5 (Base 50)    
Moisture  
Dew Point 50 °F    
Average Humidity 86    
Maximum Humidity 100    
Minimum Humidity 56    
Precipitation  
Precipitation 0.00 in 0.05 in 1.32 in (1930)
Month to date precipitation 2.81 2.38  
Year to date precipitation 2.81 2.38  
Sea Level Pressure  
Sea Level Pressure 30.16 in    
Wind  
Wind Speed 3 mph (SW)    
Max Wind Speed 10 mph    
Max Gust Speed 25 mph    
Visibility 8 miles    
Events      
T = Trace of Precipitation, MM = Missing Value Source: NWS Daily Summary

Daily Weather History Graph

Daily Weather History Graph

Search for Another Location

Airport or City:

Trip Planner

Search our weather history database for the weather conditions in past years. The results will help you decide how hot, cold, wet, or windy it might be!

Date:

Astronomy

Jan. 29, 2011 Rise Set
Actual Time 7:17 AM EST 6:08 PM EST
Civil Twilight 6:53 AM EST 6:33 PM EST
Nautical Twilight 6:25 AM EST 7:01 PM EST
Astronomical Twilight 5:57 AM EST 7:29 PM EST
Moon 3:42 AM EST (1/29) 2:16 PM EST (1/29)
Length of Visible Light 11h 40m
Length of Day
10h 51m
Waning Crescent, 18% of the Moon is Illuminated
Jan 29
Waning Crescent
Feb 2
New
Feb 11
First Quarter
Feb 18
Full
Feb 24
Last Quarter

Hourly Weather History & Observations

Time (EST) Temp. Windchill Dew Point Humidity Pressure Visibility Wind Dir Wind Speed Gust Speed Precip Events Conditions
12:53 AM 46.9 °F - 46.0 °F 97% 30.12 in 10.0 mi Calm Calm - N/A   Clear
1:53 AM 46.0 °F 44.8 °F 44.1 °F 93% 30.12 in 10.0 mi SE 3.5 mph - N/A   Clear
2:53 AM 46.9 °F - 46.0 °F 97% 30.12 in 10.0 mi Calm Calm - N/A   Clear
3:53 AM 46.0 °F - 44.1 °F 93% 30.11 in 10.0 mi Calm Calm - N/A   Clear
4:53 AM 45.0 °F - 43.0 °F 93% 30.11 in 3.0 mi Calm Calm - N/A   Clear
5:34 AM 44.6 °F - 42.8 °F 93% 30.11 in 2.5 mi Calm Calm - N/A   Clear
5:43 AM 44.6 °F - 42.8 °F 93% 30.12 in 8.0 mi Calm Calm - N/A   Clear
5:53 AM 45.0 °F - 43.0 °F 93% 30.12 in 10.0 mi Calm Calm - N/A   Clear
6:53 AM 44.1 °F - 43.0 °F 96% 30.14 in 8.0 mi Calm Calm - N/A   Clear
7:53 AM 46.0 °F - 44.1 °F 93% 30.16 in 10.0 mi Calm Calm - N/A   Clear
8:53 AM 59.0 °F - 54.0 °F 83% 30.18 in 10.0 mi Calm Calm - N/A   Clear
9:53 AM 63.0 °F - 51.1 °F 65% 30.19 in 10.0 mi SW 4.6 mph - N/A   Clear
10:53 AM 64.9 °F - 51.1 °F 61% 30.20 in 10.0 mi Variable 4.6 mph - N/A   Clear
11:53 AM 66.2 °F - 50.0 °F 56% 30.19 in 10.0 mi West 5.8 mph - N/A   Clear
12:53 PM 66.9 °F - 50.0 °F 54% 30.17 in 10.0 mi West 9.2 mph - N/A   Clear
1:53 PM 66.0 °F - 51.1 °F 59% 30.14 in 10.0 mi WSW 9.2 mph - N/A   Clear
2:53 PM 66.0 °F - 53.1 °F 63% 30.14 in 10.0 mi WSW 9.2 mph - N/A   Clear
3:53 PM 64.9 °F - 52.0 °F 63% 30.14 in 10.0 mi WSW 6.9 mph - N/A   Clear
4:53 PM 64.0 °F - 53.1 °F 67% 30.15 in 10.0 mi West 5.8 mph - N/A   Clear
5:53 PM 62.1 °F - 55.9 °F 80% 30.15 in 10.0 mi SW 5.8 mph - N/A   Clear
6:53 PM 60.1 °F - 57.0 °F 90% 30.16 in 10.0 mi SW 4.6 mph - N/A   Clear
7:53 PM 57.0 °F - 55.0 °F 93% 30.17 in 10.0 mi Calm Calm - N/A   Clear
8:53 PM 53.1 °F - 52.0 °F 96% 30.18 in 6.0 mi Calm Calm - N/A   Clear
9:04 PM 55.4 °F - 53.6 °F 94% 30.18 in 2.0 mi Calm Calm - N/A   Clear
9:15 PM 55.4 °F - 53.6 °F 94% 30.19 in 7.0 mi Calm Calm - N/A   Clear
9:53 PM 54.0 °F - 53.1 °F 97% 30.18 in 10.0 mi Calm Calm - N/A   Clear
9:59 PM 53.6 °F - 53.6 °F 100% 30.18 in 1.8 mi Calm Calm - N/A   Clear
10:10 PM 53.6 °F - 53.6 °F 100% 30.18 in 10.0 mi Calm Calm - N/A   Clear
10:53 PM 51.1 °F - 51.1 °F 100% 30.18 in 10.0 mi Calm Calm - N/A   Clear
11:10 PM 51.8 °F - 50.0 °F 94% 30.18 in 2.0 mi Calm Calm - N/A   Clear
11:27 PM 48.2 °F - 48.2 °F 100% 30.18 in 9.0 mi SSE 4.6 mph - N/A   Clear
11:53 PM 51.1 °F - 51.1 °F 100% 30.17 in 9.0 mi Calm Calm - N/A   Clear